Regional Weather Roundup
Issued by NWS Northern Indiana

Home | Current Version | Previous Version | Text Only | Print | Product List | Glossary On
Versions: 1 2 3 4 5 6 7 8 9 10 11 12 13 14 15 16 17 18 19 20 21 22 23 24 25 26 27 28 29 30 31 32 33 34 35 36 37 38 39 40 41 42 43 44 45 46 47 48 49 50
000
ASUS43 KIWX 041810
RWRIWX

KIWX WEATHER ROUNDUP
NATIONAL WEATHER SERVICE NORTHERN INDIANA
200 PM EDT TUE AUG 04 2015

NOTE: "FAIR" INDICATES FEW OR NO CLOUDS BELOW 12,000 FEET WITH NO
SIGNIFICANT WEATHER AND/OR OBSTRUCTIONS TO VISIBILITY.

* THESE STATIONS ARE NOT UNDER NWS QUALITY CONTROL. THEY ALSO MAY NOT
  REPORT WEATHER SUCH AS PRECIPITATION OR FOG.

INZ001>027-041900-
NORTHERN INDIANA

CITY           SKY/WX    TMP DP  RH WIND       PRES   REMARKS
GARY*          PTSUNNY   81  54  39 SW9       29.97F
VALPARAISO     MOSUNNY   78  54  43 W8        29.98F
6HR MIN TEMP:  63; 6HR MAX TEMP:  79;

MICHIGAN CITY* MOSUNNY   77  48  36 N7        29.98F
LAPORTE*       MOSUNNY   79  53  40 NW7       29.99S
6HR MIN TEMP:  63; 6HR MAX TEMP:  80;

KNOX*          MOSUNNY   77  54  44 W8        29.97F
SOUTH BEND     SUNNY     80  51  36 NW13      29.98S
6HR MIN TEMP:  61; 6HR MAX TEMP:  81;

ELKHART*       MOSUNNY   77  50  38 NW8G18    29.98S
GOSHEN         MOSUNNY   77  58  51 W10       29.97S
6HR MIN TEMP:  60; 6HR MAX TEMP:  78;

MONTICELLO*    MOSUNNY   78  56  46 W10       29.98F
6HR MIN TEMP:  60; 6HR MAX TEMP:  79;

LOGANSPORT*    MOSUNNY   77  52  41 W9        29.99F
ROCHESTER*     MOSUNNY   79  55  44 W9        29.99S
WARSAW*        MOSUNNY   79  55  44 W9        29.98S
ANGOLA*        MOSUNNY   79  57  47 NW10      29.97S
FORT WAYNE     PTSUNNY   80  58  46 W12       29.98S
6HR MIN TEMP:  63; 6HR MAX TEMP:  80;

HUNTINGTON*    MOSUNNY   79  57  47 W12       29.98S
6HR MIN TEMP:  63; 6HR MAX TEMP:  79;

PERU/GRISSOM   MOSUNNY   78  59  50 W12       29.98S
6HR MIN TEMP:  62; 6HR MAX TEMP:  79;

MARION*        MOSUNNY   77  57  50 NW9       30.00S
6HR MIN TEMP:  52; 6HR MAX TEMP:  89;


$$
INZ028>050-041900-
CENTRAL INDIANA

CITY           SKY/WX    TMP DP  RH WIND       PRES   REMARKS
LAFAYETTE      MOSUNNY   79  58  48 VRB7      29.99F
6HR MIN TEMP:  59; 6HR MAX TEMP:  79;

KOKOMO*        MOSUNNY   79  57  47 W10G20    29.99F
6HR MIN TEMP:  63; 6HR MAX TEMP:  79;

MUNCIE*        SUNNY     77  57  50 NW9       29.99F
6HR MIN TEMP:  63; 6HR MAX TEMP:  78;

INDIANAPOLIS   PTSUNNY   81  53  37 VRB6G16   29.99F
6HR MIN TEMP:  65; 6HR MAX TEMP:  82;


$$
MIZ043>046-050>051-056>058-064>065-071>073-077>080-041900-
SOUTHWEST LOWER MICHIGAN

CITY           SKY/WX    TMP DP  RH WIND       PRES   REMARKS
BATTLE CREEK     N/A    N/A N/A N/A MISG      29.97S
BENTON HARBOR  SUNNY     77  57  50 W13       29.97F
6HR MIN TEMP:  61; 6HR MAX TEMP:  77;

COLDWATER*     PTSUNNY   76  52  42 W9        29.96F
6HR MIN TEMP:  60; 6HR MAX TEMP:  77;

HILLSDALE*     MOSUNNY   78  53  42 W10G18    29.97S
6HR MIN TEMP:  64; 6HR MAX TEMP:  78;

HOLLAND        SUNNY     78  57  48 W12G20    29.96F
6HR MIN TEMP:  64; 6HR MAX TEMP:  78;

GRAND RAPIDS   MOSUNNY   77  53  43 W21G26    29.94F
6HR MIN TEMP:  64; 6HR MAX TEMP:  79;

KALAMAZOO      MOSUNNY   80  53  39 W12G23    29.96S
6HR MIN TEMP:  61; 6HR MAX TEMP:  80;

STURGIS*       MOSUNNY   77  55  47 W8G16     29.97S
THREE RIVERS*  PTSUNNY   76  55  49 NW8       29.97S
6HR MIN TEMP:  60; 6HR MAX TEMP:  79;


$$
OHZ001>008-015>018-024>025-041900-
NORTHWEST OHIO

CITY           SKY/WX    TMP DP  RH WIND       PRES   REMARKS
WAUSEON*       PTSUNNY   79  57  47 W12       29.96S
DEFIANCE       MOSUNNY   80  55  42 NW12      29.96S
6HR MIN TEMP:  62; 6HR MAX TEMP:  81;

FINDLAY        MOSUNNY   79  55  43 W14       29.96S
6HR MIN TEMP:  62; 6HR MAX TEMP:  81;

TOLEDO EXPRESS MOSUNNY   79  55  43 W14G22    29.95R
6HR MIN TEMP:  62; 6HR MAX TEMP:  81;

TOLEDO METCALF MOSUNNY   80  53  39 W17G24    29.95S
6HR MIN TEMP:  62; 6HR MAX TEMP:  82;

LIMA           MOSUNNY   80  56  43 W14G20    29.98F
6HR MIN TEMP:  62; 6HR MAX TEMP:  80;


$$
AND FOR LAKE MICHIGAN COASTAL AND OPEN LAKE BUOY OBSERVATIONS

STATION/POSITION TEMP    WIND        PRES    VSBY  WAVE
                 AIR SEA DIR/SP/G                  HT/PER
                 (F)     (DEG/KT/KT) (MB)    (MI)  (FT/S)
CALUMET HARBOR    81     270/  4/ 10   N/A
MICHIGAN CITY     73     250/  5/  5   N/A
BURNS HARBOR      75     330/  5/  6 1015.6S
SAINT JOSEPH      77     220/  7/  8 1015.2F
4 MI NW BRIDGMAN  72 74  280/  6/  6   N/A           1/ 3
MICHIGAN CITY     74 75  280/  2/  4   N/A           1/ 3
MICHIGAN CITY CG  72 75  300/  4       N/A       6   1

$$
&&



USA.gov is the U.S. government's official web portal to all federal, state and local government web resources and services.